owner,sensor,date,latitude,longitude,vertical_datum,wind_speed,wind_to_direction,wind_speed_of_gust,qcFlag 
WAVCIS,ioos:station:WAVCIS:CSI16:1,2011-01-01T00:00:00Z,29.4012,-89.0355,10.0,10.38,145.0,,'11111222,11111222,99999999' 
WAVCIS,ioos:station:WAVCIS:CSI16:1,2011-01-01T01:00:00Z,29.4012,-89.0355,10.0,12.21,142.0,,'11111222,11111222,99999999' 
WAVCIS,ioos:station:WAVCIS:CSI16:1,2011-01-01T02:00:00Z,29.4012,-89.0355,10.0,12.15,146.0,,'11111222,11111222,99999999' 
WAVCIS,ioos:station:WAVCIS:CSI16:1,2011-01-01T03:00:00Z,29.4012,-89.0355,10.0,12.32,147.0,,'11111222,11111222,99999999' 
WAVCIS,ioos:station:WAVCIS:CSI16:1,2011-01-01T04:00:00Z,29.4012,-89.0355,10.0,12.1,149.0,,'11111222,11111222,99999999' 
WAVCIS,ioos:station:WAVCIS:CSI16:1,2011-01-01T05:00:00Z,29.4012,-89.0355,10.0,11.05,148.0,,'11111222,11111222,99999999' 
WAVCIS,ioos:station:WAVCIS:CSI16:1,2011-01-01T06:00:00Z,29.4012,-89.0355,10.0,10.52,146.0,,'11111222,11111222,99999999' 
WAVCIS,ioos:station:WAVCIS:CSI16:1,2011-01-01T07:00:00Z,29.4012,-89.0355,10.0,10.77,151.0,,'11111222,11111222,99999999' 
WAVCIS,ioos:station:WAVCIS:CSI16:1,2011-01-01T08:00:00Z,29.4012,-89.0355,10.0,9.17,154.0,,'11111222,11111222,99999999' 
WAVCIS,ioos:station:WAVCIS:CSI16:1,2011-01-01T09:00:00Z,29.4012,-89.0355,10.0,8.6,160.0,,'11111222,11111222,99999999' 
WAVCIS,ioos:station:WAVCIS:CSI16:1,2011-01-01T10:00:00Z,29.4012,-89.0355,10.0,8.46,163.0,,'11111222,11111222,99999999' 
WAVCIS,ioos:station:WAVCIS:CSI16:1,2011-01-01T11:00:00Z,29.4012,-89.0355,10.0,9.01,160.0,,'11111222,11111222,99999999' 
WAVCIS,ioos:station:WAVCIS:CSI16:1,2011-01-01T12:00:00Z,29.4012,-89.0355,10.0,9.61,160.0,,'11111222,11111222,99999999' 
WAVCIS,ioos:station:WAVCIS:CSI16:1,2011-01-01T13:00:00Z,29.4012,-89.0355,10.0,8.42,163.0,,'11111222,11111222,99999999' 
WAVCIS,ioos:station:WAVCIS:CSI16:1,2011-01-01T14:00:00Z,29.4012,-89.0355,10.0,10.44,161.0,,'11111222,11111222,99999999' 
WAVCIS,ioos:station:WAVCIS:CSI16:1,2011-01-01T15:00:00Z,29.4012,-89.0355,10.0,6.91,187.0,,'11111222,11111222,99999999' 
WAVCIS,ioos:station:WAVCIS:CSI16:1,2011-01-01T16:00:00Z,29.4012,-89.0355,10.0,9.11,187.0,,'11111222,11111222,99999999' 
WAVCIS,ioos:station:WAVCIS:CSI16:1,2011-01-01T17:00:00Z,29.4012,-89.0355,10.0,8.44,197.0,,'11111222,11111222,99999999' 
WAVCIS,ioos:station:WAVCIS:CSI16:1,2011-01-01T18:00:00Z,29.4012,-89.0355,10.0,8.69,199.0,,'11111222,11111222,99999999' 
WAVCIS,ioos:station:WAVCIS:CSI16:1,2011-01-01T19:00:00Z,29.4012,-89.0355,10.0,9.43,203.0,,'11111222,11111222,99999999' 
WAVCIS,ioos:station:WAVCIS:CSI16:1,2011-01-01T20:00:00Z,29.4012,-89.0355,10.0,7.66,224.0,,'11111222,11111222,99999999' 
WAVCIS,ioos:station:WAVCIS:CSI16:1,2011-01-01T21:00:00Z,29.4012,-89.0355,10.0,11.33,344.0,,'11111222,11111222,99999999' 
WAVCIS,ioos:station:WAVCIS:CSI16:1,2011-01-01T22:00:00Z,29.4012,-89.0355,10.0,9.61,349.0,,'11111222,11111222,99999999' 
WAVCIS,ioos:station:WAVCIS:CSI16:1,2011-01-01T23:00:00Z,29.4012,-89.0355,10.0,11.04,357.0,,'11111222,11111222,99999999' 
WAVCIS,ioos:station:WAVCIS:CSI16:1,2011-01-02T00:00:00Z,29.4012,-89.0355,10.0,10.3,2.0,,'11111222,11111222,99999999' 
WAVCIS,ioos:station:WAVCIS:CSI16:1,2011-01-02T01:00:00Z,29.4012,-89.0355,10.0,8.52,7.0,,'11111222,11111222,99999999' 
WAVCIS,ioos:station:WAVCIS:CSI16:1,2011-01-02T02:00:00Z,29.4012,-89.0355,10.0,11.32,1.0,,'11111222,11111222,99999999' 
WAVCIS,ioos:station:WAVCIS:CSI16:1,2011-01-02T03:00:00Z,29.4012,-89.0355,10.0,11.41,357.0,,'11111222,11111222,99999999' 
WAVCIS,ioos:station:WAVCIS:CSI16:1,2011-01-02T04:00:00Z,29.4012,-89.0355,10.0,12.34,3.0,,'11111222,11111222,99999999' 
WAVCIS,ioos:station:WAVCIS:CSI16:1,2011-01-02T05:00:00Z,29.4012,-89.0355,10.0,9.41,10.0,,'11111222,11111222,99999999' 
WAVCIS,ioos:station:WAVCIS:CSI16:1,2011-01-02T06:00:00Z,29.4012,-89.0355,10.0,10.83,5.0,,'11111222,11111222,99999999' 
WAVCIS,ioos:station:WAVCIS:CSI16:1,2011-01-02T07:00:00Z,29.4012,-89.0355,10.0,12.11,2.0,,'11111222,11111222,99999999' 
WAVCIS,ioos:station:WAVCIS:CSI16:1,2011-01-02T08:00:00Z,29.4012,-89.0355,10.0,11.38,352.0,,'11111222,11111222,99999999' 
WAVCIS,ioos:station:WAVCIS:CSI16:1,2011-01-02T09:00:00Z,29.4012,-89.0355,10.0,11.81,352.0,,'11111222,11111222,99999999' 
WAVCIS,ioos:station:WAVCIS:CSI16:1,2011-01-02T10:00:00Z,29.4012,-89.0355,10.0,11.55,4.0,,'11111222,11111222,99999999' 
WAVCIS,ioos:station:WAVCIS:CSI16:1,2011-01-02T11:00:00Z,29.4012,-89.0355,10.0,12.26,349.0,,'11111222,11111222,99999999' 
WAVCIS,ioos:station:WAVCIS:CSI16:1,2011-01-02T12:00:00Z,29.4012,-89.0355,10.0,13.15,348.0,,'11111222,11111222,99999999' 
WAVCIS,ioos:station:WAVCIS:CSI16:1,2011-01-02T13:00:00Z,29.4012,-89.0355,10.0,12.93,356.0,,'11111222,11111222,99999999' 
WAVCIS,ioos:station:WAVCIS:CSI16:1,2011-01-02T14:00:00Z,29.4012,-89.0355,10.0,13.43,349.0,,'11111222,11111222,99999999' 
WAVCIS,ioos:station:WAVCIS:CSI16:1,2011-01-02T15:00:00Z,29.4012,-89.0355,10.0,13.0,351.0,,'11111222,11111222,99999999' 
WAVCIS,ioos:station:WAVCIS:CSI16:1,2011-01-02T16:00:00Z,29.4012,-89.0355,10.0,13.91,353.0,,'11111222,11111222,99999999' 
WAVCIS,ioos:station:WAVCIS:CSI16:1,2011-01-02T17:00:00Z,29.4012,-89.0355,10.0,10.88,358.0,,'11111222,11111222,99999999' 
WAVCIS,ioos:station:WAVCIS:CSI16:1,2011-01-02T18:00:00Z,29.4012,-89.0355,10.0,10.48,353.0,,'11111222,11111222,99999999' 
WAVCIS,ioos:station:WAVCIS:CSI16:1,2011-01-02T19:00:00Z,29.4012,-89.0355,10.0,10.9,350.0,,'11111222,11111222,99999999' 
WAVCIS,ioos:station:WAVCIS:CSI16:1,2011-01-02T20:00:00Z,29.4012,-89.0355,10.0,10.72,345.0,,'11111222,11111222,99999999' 
WAVCIS,ioos:station:WAVCIS:CSI16:1,2011-01-02T21:00:00Z,29.4012,-89.0355,10.0,11.12,345.0,,'11111222,11111222,99999999' 
WAVCIS,ioos:station:WAVCIS:CSI16:1,2011-01-02T22:00:00Z,29.4012,-89.0355,10.0,10.65,350.0,,'11111222,11111222,99999999' 
WAVCIS,ioos:station:WAVCIS:CSI16:1,2011-01-02T23:00:00Z,29.4012,-89.0355,10.0,10.42,355.0,,'11111222,11111222,99999999' 
WAVCIS,ioos:station:WAVCIS:CSI16:1,2011-01-03T00:00:00Z,29.4012,-89.0355,10.0,10.13,6.0,,'11111222,11111222,99999999' 
WAVCIS,ioos:station:WAVCIS:CSI16:1,2011-01-03T01:00:00Z,29.4012,-89.0355,10.0,10.39,7.0,,'11111222,11111222,99999999' 
WAVCIS,ioos:station:WAVCIS:CSI16:1,2011-01-03T02:00:00Z,29.4012,-89.0355,10.0,10.56,10.0,,'11111222,11111222,99999999' 
WAVCIS,ioos:station:WAVCIS:CSI16:1,2011-01-03T03:00:00Z,29.4012,-89.0355,10.0,9.93,10.0,,'11111222,11111222,99999999' 
WAVCIS,ioos:station:WAVCIS:CSI16:1,2011-01-03T04:00:00Z,29.4012,-89.0355,10.0,8.29,16.0,,'11111222,11111222,99999999' 
WAVCIS,ioos:station:WAVCIS:CSI16:1,2011-01-03T05:00:00Z,29.4012,-89.0355,10.0,5.868,22.0,,'11111222,11111222,99999999' 
WAVCIS,ioos:station:WAVCIS:CSI16:1,2011-01-03T06:00:00Z,29.4012,-89.0355,10.0,4.654,28.0,,'11111222,11111222,99999999' 
WAVCIS,ioos:station:WAVCIS:CSI16:1,2011-01-03T07:00:00Z,29.4012,-89.0355,10.0,5.162,26.0,,'11111222,11111222,99999999' 
WAVCIS,ioos:station:WAVCIS:CSI16:1,2011-01-03T08:00:00Z,29.4012,-89.0355,10.0,4.962,25.0,,'11111222,11111222,99999999' 
WAVCIS,ioos:station:WAVCIS:CSI16:1,2011-01-03T09:00:00Z,29.4012,-89.0355,10.0,4.358,31.0,,'11111222,11111222,99999999' 
WAVCIS,ioos:station:WAVCIS:CSI16:1,2011-01-03T10:00:00Z,29.4012,-89.0355,10.0,3.994,32.0,,'11111222,11111222,99999999' 
WAVCIS,ioos:station:WAVCIS:CSI16:1,2011-01-03T11:00:00Z,29.4012,-89.0355,10.0,3.608,36.0,,'11111222,11111222,99999999' 
WAVCIS,ioos:station:WAVCIS:CSI16:1,2011-01-03T12:00:00Z,29.4012,-89.0355,10.0,4.994,43.0,,'11111222,11111222,99999999' 
WAVCIS,ioos:station:WAVCIS:CSI16:1,2011-01-03T13:00:00Z,29.4012,-89.0355,10.0,4.945,43.0,,'11111222,11111222,99999999' 
WAVCIS,ioos:station:WAVCIS:CSI16:1,2011-01-03T14:00:00Z,29.4012,-89.0355,10.0,5.141,49.0,,'11111222,11111222,99999999' 
WAVCIS,ioos:station:WAVCIS:CSI16:1,2011-01-03T15:00:00Z,29.4012,-89.0355,10.0,4.535,45.0,,'11111222,11111222,99999999' 
WAVCIS,ioos:station:WAVCIS:CSI16:1,2011-01-03T16:00:00Z,29.4012,-89.0355,10.0,4.341,46.0,,'11111222,11111222,99999999' 
WAVCIS,ioos:station:WAVCIS:CSI16:1,2011-01-03T17:00:00Z,29.4012,-89.0355,10.0,4.162,49.0,,'11111222,11111222,99999999' 
WAVCIS,ioos:station:WAVCIS:CSI16:1,2011-01-03T18:00:00Z,29.4012,-89.0355,10.0,3.301,49.0,,'11111222,11111222,99999999' 
WAVCIS,ioos:station:WAVCIS:CSI16:1,2011-01-03T19:00:00Z,29.4012,-89.0355,10.0,4.156,49.0,,'11111222,11111222,99999999' 
WAVCIS,ioos:station:WAVCIS:CSI16:1,2011-01-03T20:00:00Z,29.4012,-89.0355,10.0,3.907,70.0,,'11111222,11111222,99999999' 
WAVCIS,ioos:station:WAVCIS:CSI16:1,2011-01-03T21:00:00Z,29.4012,-89.0355,10.0,3.369,65.0,,'11111222,11111222,99999999' 
WAVCIS,ioos:station:WAVCIS:CSI16:1,2011-01-03T22:00:00Z,29.4012,-89.0355,10.0,3.768,54.0,,'11111222,11111222,99999999' 
WAVCIS,ioos:station:WAVCIS:CSI16:1,2011-01-03T23:00:00Z,29.4012,-89.0355,10.0,3.751,66.0,,'11111222,11111222,99999999' 
WAVCIS,ioos:station:WAVCIS:CSI16:1,2011-01-04T00:00:00Z,29.4012,-89.0355,10.0,3.113,53.0,,'11111222,11111222,99999999' 
WAVCIS,ioos:station:WAVCIS:CSI16:1,2011-01-04T01:00:00Z,29.4012,-89.0355,10.0,3.692,70.0,,'11111222,11111222,99999999' 
WAVCIS,ioos:station:WAVCIS:CSI16:1,2011-01-04T02:00:00Z,29.4012,-89.0355,10.0,3.923,67.0,,'11111222,11111222,99999999' 
WAVCIS,ioos:station:WAVCIS:CSI16:1,2011-01-04T03:00:00Z,29.4012,-89.0355,10.0,3.809,73.0,,'11111222,11111222,99999999' 
WAVCIS,ioos:station:WAVCIS:CSI16:1,2011-01-04T04:00:00Z,29.4012,-89.0355,10.0,3.739,64.0,,'11111222,11111222,99999999' 
WAVCIS,ioos:station:WAVCIS:CSI16:1,2011-01-04T05:00:00Z,29.4012,-89.0355,10.0,3.279,102.0,,'11111222,11111222,99999999' 
WAVCIS,ioos:station:WAVCIS:CSI16:1,2011-01-04T06:00:00Z,29.4012,-89.0355,10.0,2.913,123.0,,'11111222,11111222,99999999' 
WAVCIS,ioos:station:WAVCIS:CSI16:1,2011-01-04T07:00:00Z,29.4012,-89.0355,10.0,0.982,156.0,,'11111222,11111222,99999999' 
WAVCIS,ioos:station:WAVCIS:CSI16:1,2011-01-04T08:00:00Z,29.4012,-89.0355,10.0,2.983,106.0,,'11111222,11111222,99999999' 
WAVCIS,ioos:station:WAVCIS:CSI16:1,2011-01-04T09:00:00Z,29.4012,-89.0355,10.0,2.638,69.0,,'11111222,11111222,99999999' 
WAVCIS,ioos:station:WAVCIS:CSI16:1,2011-01-04T10:00:00Z,29.4012,-89.0355,10.0,2.604,53.0,,'11111222,11111222,99999999' 
WAVCIS,ioos:station:WAVCIS:CSI16:1,2011-01-04T11:00:00Z,29.4012,-89.0355,10.0,2.982,52.0,,'11111222,11111222,99999999' 
WAVCIS,ioos:station:WAVCIS:CSI16:1,2011-01-04T12:00:00Z,29.4012,-89.0355,10.0,4.241,47.0,,'11111222,11111222,99999999' 
WAVCIS,ioos:station:WAVCIS:CSI16:1,2011-01-04T13:00:00Z,29.4012,-89.0355,10.0,1.751,42.0,,'11111222,11111222,99999999' 
WAVCIS,ioos:station:WAVCIS:CSI16:1,2011-01-04T14:00:00Z,29.4012,-89.0355,10.0,3.45,46.0,,'11111222,11111222,99999999' 
WAVCIS,ioos:station:WAVCIS:CSI16:1,2011-01-04T15:00:00Z,29.4012,-89.0355,10.0,4.865,54.0,,'11111222,11111222,99999999' 
WAVCIS,ioos:station:WAVCIS:CSI16:1,2011-01-04T16:00:00Z,29.4012,-89.0355,10.0,1.893,42.0,,'11111222,11111222,99999999' 
WAVCIS,ioos:station:WAVCIS:CSI16:1,2011-01-04T17:00:00Z,29.4012,-89.0355,10.0,4.145,54.0,,'11111222,11111222,99999999' 
WAVCIS,ioos:station:WAVCIS:CSI16:1,2011-01-04T18:00:00Z,29.4012,-89.0355,10.0,2.915,47.0,,'11111222,11111222,99999999' 
WAVCIS,ioos:station:WAVCIS:CSI16:1,2011-01-04T19:00:00Z,29.4012,-89.0355,10.0,1.398,40.0,,'11111222,11111222,99999999' 
WAVCIS,ioos:station:WAVCIS:CSI16:1,2011-01-04T20:00:00Z,29.4012,-89.0355,10.0,1.384,46.0,,'11111222,11111222,99999999' 
WAVCIS,ioos:station:WAVCIS:CSI16:1,2011-01-04T21:00:00Z,29.4012,-89.0355,10.0,2.739,55.0,,'11111222,11111222,99999999' 
WAVCIS,ioos:station:WAVCIS:CSI16:1,2011-01-04T22:00:00Z,29.4012,-89.0355,10.0,4.673,96.0,,'11111222,11111222,99999999' 
WAVCIS,ioos:station:WAVCIS:CSI16:1,2011-01-04T23:00:00Z,29.4012,-89.0355,10.0,3.709,82.0,,'11111222,11111222,99999999' 
WAVCIS,ioos:station:WAVCIS:CSI16:1,2011-01-05T00:00:00Z,29.4012,-89.0355,10.0,4.134,92.0,,'11111222,11111222,99999999' 
WAVCIS,ioos:station:WAVCIS:CSI16:1,2011-01-05T01:00:00Z,29.4012,-89.0355,10.0,3.967,100.0,,'11111222,11111222,99999999' 
WAVCIS,ioos:station:WAVCIS:CSI16:1,2011-01-05T02:00:00Z,29.4012,-89.0355,10.0,4.721,103.0,,'11111222,11111222,99999999' 
WAVCIS,ioos:station:WAVCIS:CSI16:1,2011-01-05T03:00:00Z,29.4012,-89.0355,10.0,4.606,121.0,,'11111222,11111222,99999999' 
WAVCIS,ioos:station:WAVCIS:CSI16:1,2011-01-05T04:00:00Z,29.4012,-89.0355,10.0,6.406,134.0,,'11111222,11111222,99999999' 
WAVCIS,ioos:station:WAVCIS:CSI16:1,2011-01-05T05:00:00Z,29.4012,-89.0355,10.0,3.545,140.0,,'11111222,11111222,99999999' 
WAVCIS,ioos:station:WAVCIS:CSI16:1,2011-01-05T06:00:00Z,29.4012,-89.0355,10.0,7.15,141.0,,'11111222,11111222,99999999' 
WAVCIS,ioos:station:WAVCIS:CSI16:1,2011-01-05T07:00:00Z,29.4012,-89.0355,10.0,7.9,144.0,,'11111222,11111222,99999999' 
WAVCIS,ioos:station:WAVCIS:CSI16:1,2011-01-05T08:00:00Z,29.4012,-89.0355,10.0,9.72,150.0,,'11111222,11111222,99999999' 
WAVCIS,ioos:station:WAVCIS:CSI16:1,2011-01-05T09:00:00Z,29.4012,-89.0355,10.0,8.22,148.0,,'11111222,11111222,99999999' 
WAVCIS,ioos:station:WAVCIS:CSI16:1,2011-01-05T10:00:00Z,29.4012,-89.0355,10.0,8.27,162.0,,'11111222,11111222,99999999' 
WAVCIS,ioos:station:WAVCIS:CSI16:1,2011-01-05T11:00:00Z,29.4012,-89.0355,10.0,10.1,181.0,,'11111222,11111222,99999999' 
WAVCIS,ioos:station:WAVCIS:CSI16:1,2011-01-05T12:00:00Z,29.4012,-89.0355,10.0,10.3,191.0,,'11111222,11111222,99999999' 
WAVCIS,ioos:station:WAVCIS:CSI16:1,2011-01-05T13:00:00Z,29.4012,-89.0355,10.0,8.68,193.0,,'11111222,11111222,99999999' 
WAVCIS,ioos:station:WAVCIS:CSI16:1,2011-01-05T14:00:00Z,29.4012,-89.0355,10.0,8.79,204.0,,'11111222,11111222,99999999' 
WAVCIS,ioos:station:WAVCIS:CSI16:1,2011-01-05T15:00:00Z,29.4012,-89.0355,10.0,7.9,225.0,,'11111222,11111222,99999999' 
WAVCIS,ioos:station:WAVCIS:CSI16:1,2011-01-05T16:00:00Z,29.4012,-89.0355,10.0,7.69,244.0,,'11111222,11111222,99999999' 
WAVCIS,ioos:station:WAVCIS:CSI16:1,2011-01-05T17:00:00Z,29.4012,-89.0355,10.0,8.08,235.0,,'11111222,11111222,99999999' 
WAVCIS,ioos:station:WAVCIS:CSI16:1,2011-01-05T18:00:00Z,29.4012,-89.0355,10.0,10.02,240.0,,'11111222,11111222,99999999' 
WAVCIS,ioos:station:WAVCIS:CSI16:1,2011-01-05T19:00:00Z,29.4012,-89.0355,10.0,9.95,233.0,,'11111222,11111222,99999999' 
WAVCIS,ioos:station:WAVCIS:CSI16:1,2011-01-05T20:00:00Z,29.4012,-89.0355,10.0,12.62,241.0,,'11111222,11111222,99999999' 
WAVCIS,ioos:station:WAVCIS:CSI16:1,2011-01-05T21:00:00Z,29.4012,-89.0355,10.0,10.72,240.0,,'11111222,11111222,99999999' 
WAVCIS,ioos:station:WAVCIS:CSI16:1,2011-01-05T22:00:00Z,29.4012,-89.0355,10.0,9.68,262.0,,'11111222,11111222,99999999' 
WAVCIS,ioos:station:WAVCIS:CSI16:1,2011-01-05T23:00:00Z,29.4012,-89.0355,10.0,9.27,247.0,,'11111222,11111222,99999999' 
WAVCIS,ioos:station:WAVCIS:CSI16:1,2011-01-06T00:00:00Z,29.4012,-89.0355,10.0,8.6,246.0,,'11111222,11111222,99999999' 
WAVCIS,ioos:station:WAVCIS:CSI16:1,2011-01-06T01:00:00Z,29.4012,-89.0355,10.0,8.09,241.0,,'11111222,11111222,99999999' 
WAVCIS,ioos:station:WAVCIS:CSI16:1,2011-01-06T02:00:00Z,29.4012,-89.0355,10.0,7.11,262.0,,'11111222,11111222,99999999' 
WAVCIS,ioos:station:WAVCIS:CSI16:1,2011-01-06T03:00:00Z,29.4012,-89.0355,10.0,7.95,266.0,,'11111222,11111222,99999999' 
WAVCIS,ioos:station:WAVCIS:CSI16:1,2011-01-06T04:00:00Z,29.4012,-89.0355,10.0,7.57,272.0,,'11111222,11111222,99999999' 
WAVCIS,ioos:station:WAVCIS:CSI16:1,2011-01-06T05:00:00Z,29.4012,-89.0355,10.0,5.763,299.0,,'11111222,11111222,99999999' 
WAVCIS,ioos:station:WAVCIS:CSI16:1,2011-01-06T06:00:00Z,29.4012,-89.0355,10.0,6.837,318.0,,'11111222,11111222,99999999' 
WAVCIS,ioos:station:WAVCIS:CSI16:1,2011-01-06T07:00:00Z,29.4012,-89.0355,10.0,6.096,319.0,,'11111222,11111222,99999999' 
WAVCIS,ioos:station:WAVCIS:CSI16:1,2011-01-06T08:00:00Z,29.4012,-89.0355,10.0,6.308,321.0,,'11111222,11111222,99999999' 
WAVCIS,ioos:station:WAVCIS:CSI16:1,2011-01-06T09:00:00Z,29.4012,-89.0355,10.0,9.63,343.0,,'11111222,11111222,99999999' 
WAVCIS,ioos:station:WAVCIS:CSI16:1,2011-01-06T10:00:00Z,29.4012,-89.0355,10.0,11.19,351.0,,'11111222,11111222,99999999' 
WAVCIS,ioos:station:WAVCIS:CSI16:1,2011-01-06T11:00:00Z,29.4012,-89.0355,10.0,10.29,2.0,,'11111222,11111222,99999999' 
WAVCIS,ioos:station:WAVCIS:CSI16:1,2011-01-06T12:00:00Z,29.4012,-89.0355,10.0,9.58,3.0,,'11111222,11111222,99999999' 
WAVCIS,ioos:station:WAVCIS:CSI16:1,2011-01-06T13:00:00Z,29.4012,-89.0355,10.0,9.75,359.0,,'11111222,11111222,99999999' 
WAVCIS,ioos:station:WAVCIS:CSI16:1,2011-01-06T14:00:00Z,29.4012,-89.0355,10.0,7.01,359.0,,'11111222,11111222,99999999' 
WAVCIS,ioos:station:WAVCIS:CSI16:1,2011-01-06T15:00:00Z,29.4012,-89.0355,10.0,5.538,338.0,,'11111222,11111222,99999999' 
WAVCIS,ioos:station:WAVCIS:CSI16:1,2011-01-06T16:00:00Z,29.4012,-89.0355,10.0,4.967,323.0,,'11111222,11111222,99999999' 
WAVCIS,ioos:station:WAVCIS:CSI16:1,2011-01-06T17:00:00Z,29.4012,-89.0355,10.0,4.931,315.0,,'11111222,11111222,99999999' 
WAVCIS,ioos:station:WAVCIS:CSI16:1,2011-01-06T18:00:00Z,29.4012,-89.0355,10.0,3.776,303.0,,'11111222,11111222,99999999' 
WAVCIS,ioos:station:WAVCIS:CSI16:1,2011-01-06T19:00:00Z,29.4012,-89.0355,10.0,4.779,288.0,,'11111222,11111222,99999999' 
WAVCIS,ioos:station:WAVCIS:CSI16:1,2011-01-06T21:00:00Z,29.4012,-89.0355,10.0,6.161,277.0,,'11111222,11111222,99999999' 
WAVCIS,ioos:station:WAVCIS:CSI16:1,2011-01-06T22:00:00Z,29.4012,-89.0355,10.0,6.696,280.0,,'11111222,11111222,99999999' 
WAVCIS,ioos:station:WAVCIS:CSI16:1,2011-01-06T23:00:00Z,29.4012,-89.0355,10.0,5.689,279.0,,'11111222,11111222,99999999' 
WAVCIS,ioos:station:WAVCIS:CSI16:1,2011-01-07T00:00:00Z,29.4012,-89.0355,10.0,4.412,276.0,,'11111222,11111222,99999999' 
WAVCIS,ioos:station:WAVCIS:CSI16:1,2011-01-07T01:00:00Z,29.4012,-89.0355,10.0,4.535,263.0,,'11111222,11111222,99999999' 
WAVCIS,ioos:station:WAVCIS:CSI16:1,2011-01-07T02:00:00Z,29.4012,-89.0355,10.0,4.672,262.0,,'11111222,11111222,99999999' 
WAVCIS,ioos:station:WAVCIS:CSI16:1,2011-01-07T03:00:00Z,29.4012,-89.0355,10.0,4.54,287.0,,'11111222,11111222,99999999' 
WAVCIS,ioos:station:WAVCIS:CSI16:1,2011-01-07T04:00:00Z,29.4012,-89.0355,10.0,5.103,279.0,,'11111222,11111222,99999999' 
WAVCIS,ioos:station:WAVCIS:CSI16:1,2011-01-07T05:00:00Z,29.4012,-89.0355,10.0,5.388,302.0,,'11111222,11111222,99999999' 
WAVCIS,ioos:station:WAVCIS:CSI16:1,2011-01-07T06:00:00Z,29.4012,-89.0355,10.0,5.04,310.0,,'11111222,11111222,99999999' 
WAVCIS,ioos:station:WAVCIS:CSI16:1,2011-01-07T07:00:00Z,29.4012,-89.0355,10.0,4.576,303.0,,'11111222,11111222,99999999' 
WAVCIS,ioos:station:WAVCIS:CSI16:1,2011-01-07T08:00:00Z,29.4012,-89.0355,10.0,4.8,274.0,,'11111222,11111222,99999999' 
WAVCIS,ioos:station:WAVCIS:CSI16:1,2011-01-07T09:00:00Z,29.4012,-89.0355,10.0,4.792,258.0,,'11111222,11111222,99999999' 
WAVCIS,ioos:station:WAVCIS:CSI16:1,2011-01-07T10:00:00Z,29.4012,-89.0355,10.0,5.241,260.0,,'11111222,11111222,99999999' 
WAVCIS,ioos:station:WAVCIS:CSI16:1,2011-01-07T11:00:00Z,29.4012,-89.0355,10.0,6.319,260.0,,'11111222,11111222,99999999' 
WAVCIS,ioos:station:WAVCIS:CSI16:1,2011-01-07T12:00:00Z,29.4012,-89.0355,10.0,6.631,264.0,,'11111222,11111222,99999999' 
WAVCIS,ioos:station:WAVCIS:CSI16:1,2011-01-07T13:00:00Z,29.4012,-89.0355,10.0,6.306,259.0,,'11111222,11111222,99999999' 
WAVCIS,ioos:station:WAVCIS:CSI16:1,2011-01-07T14:00:00Z,29.4012,-89.0355,10.0,5.57,259.0,,'11111222,11111222,99999999' 
WAVCIS,ioos:station:WAVCIS:CSI16:1,2011-01-07T15:00:00Z,29.4012,-89.0355,10.0,6.798,257.0,,'11111222,11111222,99999999' 
WAVCIS,ioos:station:WAVCIS:CSI16:1,2011-01-07T16:00:00Z,29.4012,-89.0355,10.0,6.358,251.0,,'11111222,11111222,99999999' 
WAVCIS,ioos:station:WAVCIS:CSI16:1,2011-01-07T17:00:00Z,29.4012,-89.0355,10.0,7.06,246.0,,'11111222,11111222,99999999' 
WAVCIS,ioos:station:WAVCIS:CSI16:1,2011-01-07T18:00:00Z,29.4012,-89.0355,10.0,8.62,243.0,,'11111222,11111222,99999999' 
WAVCIS,ioos:station:WAVCIS:CSI16:1,2011-01-07T19:00:00Z,29.4012,-89.0355,10.0,8.45,252.0,,'11111222,11111222,99999999' 
WAVCIS,ioos:station:WAVCIS:CSI16:1,2011-01-07T20:00:00Z,29.4012,-89.0355,10.0,10.24,249.0,,'11111222,11111222,99999999' 
WAVCIS,ioos:station:WAVCIS:CSI16:1,2011-01-07T21:00:00Z,29.4012,-89.0355,10.0,10.31,249.0,,'11111222,11111222,99999999' 
WAVCIS,ioos:station:WAVCIS:CSI16:1,2011-01-07T22:00:00Z,29.4012,-89.0355,10.0,10.7,246.0,,'11111222,11111222,99999999' 
WAVCIS,ioos:station:WAVCIS:CSI16:1,2011-01-07T23:00:00Z,29.4012,-89.0355,10.0,10.3,247.0,,'11111222,11111222,99999999' 
WAVCIS,ioos:station:WAVCIS:CSI16:1,2011-01-08T00:00:00Z,29.4012,-89.0355,10.0,9.01,241.0,,'11111222,11111222,99999999' 
WAVCIS,ioos:station:WAVCIS:CSI16:1,2011-01-08T01:00:00Z,29.4012,-89.0355,10.0,9.32,242.0,,'11111222,11111222,99999999' 
WAVCIS,ioos:station:WAVCIS:CSI16:1,2011-01-08T02:00:00Z,29.4012,-89.0355,10.0,10.22,247.0,,'11111222,11111222,99999999' 
WAVCIS,ioos:station:WAVCIS:CSI16:1,2011-01-08T03:00:00Z,29.4012,-89.0355,10.0,10.39,252.0,,'11111222,11111222,99999999' 
WAVCIS,ioos:station:WAVCIS:CSI16:1,2011-01-08T04:00:00Z,29.4012,-89.0355,10.0,10.26,248.0,,'11111222,11111222,99999999' 
WAVCIS,ioos:station:WAVCIS:CSI16:1,2011-01-08T05:00:00Z,29.4012,-89.0355,10.0,10.95,250.0,,'11111222,11111222,99999999' 
WAVCIS,ioos:station:WAVCIS:CSI16:1,2011-01-08T06:00:00Z,29.4012,-89.0355,10.0,10.86,255.0,,'11111222,11111222,99999999' 
WAVCIS,ioos:station:WAVCIS:CSI16:1,2011-01-08T07:00:00Z,29.4012,-89.0355,10.0,10.71,256.0,,'11111222,11111222,99999999' 
WAVCIS,ioos:station:WAVCIS:CSI16:1,2011-01-08T08:00:00Z,29.4012,-89.0355,10.0,10.72,260.0,,'11111222,11111222,99999999' 
WAVCIS,ioos:station:WAVCIS:CSI16:1,2011-01-08T09:00:00Z,29.4012,-89.0355,10.0,10.95,274.0,,'11111222,11111222,99999999' 
WAVCIS,ioos:station:WAVCIS:CSI16:1,2011-01-08T10:00:00Z,29.4012,-89.0355,10.0,8.22,301.0,,'11111222,11111222,99999999' 
WAVCIS,ioos:station:WAVCIS:CSI16:1,2011-01-08T11:00:00Z,29.4012,-89.0355,10.0,8.69,332.0,,'11111222,11111222,99999999' 
WAVCIS,ioos:station:WAVCIS:CSI16:1,2011-01-08T12:00:00Z,29.4012,-89.0355,10.0,8.13,347.0,,'11111222,11111222,99999999' 
WAVCIS,ioos:station:WAVCIS:CSI16:1,2011-01-08T13:00:00Z,29.4012,-89.0355,10.0,7.48,346.0,,'11111222,11111222,99999999' 
WAVCIS,ioos:station:WAVCIS:CSI16:1,2011-01-08T14:00:00Z,29.4012,-89.0355,10.0,8.66,357.0,,'11111222,11111222,99999999' 
WAVCIS,ioos:station:WAVCIS:CSI16:1,2011-01-08T15:00:00Z,29.4012,-89.0355,10.0,7.58,355.0,,'11111222,11111222,99999999' 
WAVCIS,ioos:station:WAVCIS:CSI16:1,2011-01-08T16:00:00Z,29.4012,-89.0355,10.0,6.332,345.0,,'11111222,11111222,99999999' 
WAVCIS,ioos:station:WAVCIS:CSI16:1,2011-01-08T17:00:00Z,29.4012,-89.0355,10.0,5.359,341.0,,'11111222,11111222,99999999' 
WAVCIS,ioos:station:WAVCIS:CSI16:1,2011-01-08T18:00:00Z,29.4012,-89.0355,10.0,3.964,337.0,,'11111222,11111222,99999999' 
WAVCIS,ioos:station:WAVCIS:CSI16:1,2011-01-08T19:00:00Z,29.4012,-89.0355,10.0,4.531,340.0,,'11111222,11111222,99999999' 
WAVCIS,ioos:station:WAVCIS:CSI16:1,2011-01-08T20:00:00Z,29.4012,-89.0355,10.0,3.386,330.0,,'11111222,11111222,99999999' 
WAVCIS,ioos:station:WAVCIS:CSI16:1,2011-01-08T21:00:00Z,29.4012,-89.0355,10.0,1.594,323.0,,'11111222,11111222,99999999' 
WAVCIS,ioos:station:WAVCIS:CSI16:1,2011-01-08T22:00:00Z,29.4012,-89.0355,10.0,1.156,335.0,,'11111222,11111222,99999999' 
WAVCIS,ioos:station:WAVCIS:CSI16:1,2011-01-08T23:00:00Z,29.4012,-89.0355,10.0,1.136,39.0,,'11111222,11111222,99999999' 
WAVCIS,ioos:station:WAVCIS:CSI16:1,2011-01-09T00:00:00Z,29.4012,-89.0355,10.0,1.959,6.0,,'11111222,11111222,99999999' 
WAVCIS,ioos:station:WAVCIS:CSI16:1,2011-01-09T01:00:00Z,29.4012,-89.0355,10.0,3.405,353.0,,'11111222,11111222,99999999' 
WAVCIS,ioos:station:WAVCIS:CSI16:1,2011-01-09T02:00:00Z,29.4012,-89.0355,10.0,2.977,357.0,,'11111222,11111222,99999999' 
WAVCIS,ioos:station:WAVCIS:CSI16:1,2011-01-09T03:00:00Z,29.4012,-89.0355,10.0,2.551,5.0,,'11111222,11111222,99999999' 
WAVCIS,ioos:station:WAVCIS:CSI16:1,2011-01-09T04:00:00Z,29.4012,-89.0355,10.0,4.832,9.0,,'11111222,11111222,99999999' 
WAVCIS,ioos:station:WAVCIS:CSI16:1,2011-01-09T05:00:00Z,29.4012,-89.0355,10.0,4.364,21.0,,'11111222,11111222,99999999' 
WAVCIS,ioos:station:WAVCIS:CSI16:1,2011-01-09T06:00:00Z,29.4012,-89.0355,10.0,4.481,44.0,,'11111222,11111222,99999999' 